Weather History for Oelwein, IA

Change the Weather History Date:

Thursday, October 4, 2012

  Actual Average Record
Temperature  
Mean Temperature 48 °F -  
Max Temperature 57 °F 65 °F 87 °F (2005)
Min Temperature 39 °F 42 °F 25 °F (1989)
Degree Days  
Heating Degree Days 17    
Moisture  
Dew Point 35 °F    
Average Humidity 56    
Maximum Humidity 81    
Minimum Humidity 33    
Precipitation  
Precipitation 0.00 in - - ()
Sea Level Pressure  
Sea Level Pressure 30.06 in    
Wind  
Wind Speed 11 mph (West)    
Max Wind Speed 21 mph    
Max Gust Speed 28 mph    
Visibility 10 miles    
Events Rain    
Averages and records for this station are not official NWS values.
T = Trace of Precipitation, MM = Missing Value Source: NWS Daily Summary

Daily Weather History Graph

Daily Weather History Graph

Search for Another Location

Airport:

Trip Planner

Search our weather history database for the weather conditions in past years. The results will help you decide how hot, cold, wet, or windy it might be!

Date:

Astronomy

Oct. 04, 2012 Rise Set
Actual Time 7:09 AM CDT 6:43 PM CDT
Civil Twilight 6:40 AM CDT 7:11 PM CDT
Nautical Twilight 6:08 AM CDT 7:43 PM CDT
Astronomical Twilight 5:35 AM CDT 8:16 PM CDT
Moon 9:12 PM CDT (10/4) 11:32 AM CDT (10/4)
Length of Visible Light 12h 30m
Length of Day
11h 34m
Waning Gibbous, 82% of the Moon is Illuminated
Oct 4
Waning Gibbous
Oct 8
Last Quarter
Oct 15
New
Oct 21
First Quarter
Oct 29
Full

Hourly Weather History & Observations

Time (CDT) Temp. Windchill Dew Point Humidity Pressure Visibility Wind Dir Wind Speed Gust Speed Precip Events Conditions
12:14 AM 57.2 °F - 44.6 °F 63% 29.95 in 10.0 mi SSE 8.1 mph - N/A   Clear
12:15 AM 55.4 °F - 44.6 °F 67% 29.95 in 10.0 mi SSE 8.1 mph - N/A   Clear
12:34 AM 55.4 °F - 44.6 °F 67% 29.96 in 10.0 mi SSE 6.9 mph - N/A   Clear
12:35 AM 55.4 °F - 44.6 °F 67% 29.96 in 10.0 mi SSE 6.9 mph - N/A   Clear
12:54 AM 55.4 °F - 44.6 °F 67% 29.95 in 10.0 mi SSE 6.9 mph - N/A   Clear
12:55 AM 53.6 °F - 44.6 °F 72% 29.95 in 10.0 mi SSE 6.9 mph - N/A   Clear
1:14 AM 55.4 °F - 44.6 °F 67% 29.95 in 10.0 mi SSE 6.9 mph - N/A   Clear
1:15 AM 53.6 °F - 44.6 °F 72% 29.95 in 10.0 mi SSE 6.9 mph - N/A   Clear
1:35 AM 53.6 °F - 44.6 °F 72% 29.96 in 10.0 mi SSE 6.9 mph - N/A   Clear
1:54 AM 53.6 °F - 44.6 °F 72% 29.96 in 10.0 mi South 6.9 mph - N/A   Clear
1:55 AM 51.8 °F - 44.6 °F 76% 29.96 in 10.0 mi SSE 6.9 mph - N/A   Clear
2:14 AM 53.6 °F - 44.6 °F 72% 29.95 in 10.0 mi South 6.9 mph - N/A   Clear
2:15 AM 51.8 °F - 44.6 °F 76% 29.95 in 10.0 mi South 6.9 mph - N/A   Clear
2:34 AM 53.6 °F - 44.6 °F 72% 29.94 in 10.0 mi South 8.1 mph - N/A   Clear
2:35 AM 51.8 °F - 44.6 °F 76% 29.94 in 10.0 mi South 8.1 mph - N/A   Clear
2:54 AM 53.6 °F - 44.6 °F 72% 29.94 in 10.0 mi South 5.8 mph - N/A   Clear
2:55 AM 51.8 °F - 44.6 °F 76% 29.94 in 10.0 mi South 5.8 mph - N/A   Clear
3:14 AM 51.8 °F - 44.6 °F 76% 29.94 in 10.0 mi South 6.9 mph - N/A   Clear
3:15 AM 51.8 °F - 44.6 °F 76% 29.94 in 10.0 mi South 6.9 mph - N/A   Clear
3:34 AM 51.8 °F - 44.6 °F 76% 29.94 in 10.0 mi South 5.8 mph - N/A   Clear
3:35 AM 51.8 °F - 42.8 °F 71% 29.94 in 10.0 mi South 6.9 mph - N/A   Clear
3:54 AM 51.8 °F - 44.6 °F 76% 29.93 in 10.0 mi SSE 6.9 mph - N/A   Clear
3:55 AM 51.8 °F - 42.8 °F 71% 29.93 in 10.0 mi SSE 6.9 mph - N/A   Clear
4:14 AM 51.8 °F - 44.6 °F 76% 29.93 in 10.0 mi South 6.9 mph - N/A   Clear
4:15 AM 51.8 °F - 42.8 °F 71% 29.93 in 10.0 mi South 6.9 mph - N/A   Clear
4:34 AM 51.8 °F - 44.6 °F 76% 29.92 in 10.0 mi SSE 6.9 mph - N/A   Clear
4:35 AM 51.8 °F - 42.8 °F 71% 29.92 in 10.0 mi SSE 6.9 mph - N/A   Clear
4:54 AM 51.8 °F - 44.6 °F 76% 29.92 in 10.0 mi South 6.9 mph - N/A   Clear
4:55 AM 51.8 °F - 42.8 °F 71% 29.92 in 10.0 mi South 6.9 mph - N/A   Clear
5:14 AM 51.8 °F - 44.6 °F 76% 29.94 in 10.0 mi South 6.9 mph - N/A   Clear
5:15 AM 51.8 °F - 42.8 °F 71% 29.94 in 10.0 mi South 6.9 mph - N/A   Clear
5:34 AM 51.8 °F - 44.6 °F 76% 29.94 in 10.0 mi SSW 5.8 mph - N/A   Clear
5:35 AM 51.8 °F - 42.8 °F 71% 29.94 in 10.0 mi SSW 5.8 mph - N/A   Clear
5:54 AM 53.6 °F - 44.6 °F 72% 29.95 in 10.0 mi SW 6.9 mph - N/A   Clear
5:55 AM 51.8 °F - 42.8 °F 71% 29.95 in 10.0 mi SW 6.9 mph - N/A   Clear
6:14 AM 55.4 °F - 44.6 °F 67% 29.96 in 10.0 mi WSW 9.2 mph - N/A   Clear
6:15 AM 53.6 °F - 42.8 °F 67% 29.96 in 10.0 mi WSW 10.4 mph - N/A   Clear
6:34 AM 51.8 °F - 39.2 °F 62% 29.97 in 10.0 mi West 16.1 mph 23.0 mph N/A   Clear
6:35 AM 51.8 °F - 37.4 °F 58% 29.97 in 10.0 mi West 16.1 mph 23.0 mph N/A   Clear
6:54 AM 51.8 °F - 37.4 °F 58% 29.97 in 10.0 mi West 16.1 mph 20.7 mph N/A   Clear
6:55 AM 50.0 °F - 37.4 °F 62% 29.97 in 10.0 mi WNW 15.0 mph 20.7 mph N/A   Clear
7:14 AM 50.0 °F - 37.4 °F 62% 29.99 in 10.0 mi West 13.8 mph 24.2 mph N/A   Clear
7:15 AM 50.0 °F - 37.4 °F 62% 29.99 in 10.0 mi West 13.8 mph 24.2 mph N/A   Clear
7:34 AM 50.0 °F - 37.4 °F 62% 30.01 in 10.0 mi West 17.3 mph 23.0 mph N/A   Clear
7:35 AM 50.0 °F - 37.4 °F 62% 30.01 in 10.0 mi West 17.3 mph 23.0 mph N/A   Clear
7:55 AM 50.0 °F - 37.4 °F 62% 30.00 in 10.0 mi West 13.8 mph 24.2 mph N/A   Clear
8:14 AM 48.2 °F - 37.4 °F 66% 30.02 in 10.0 mi West 13.8 mph 21.9 mph N/A   Clear
8:15 AM 48.2 °F - 35.6 °F 62% 30.02 in 10.0 mi WNW 15.0 mph 21.9 mph N/A Rain Light Rain
8:34 AM 46.4 °F 40.4 °F 39.2 °F 76% 30.03 in 10.0 mi WNW 13.8 mph 20.7 mph N/A Rain Light Rain
8:35 AM 46.4 °F 40.4 °F 37.4 °F 71% 30.03 in 10.0 mi WNW 13.8 mph 20.7 mph N/A Rain Light Rain
8:54 AM 46.4 °F 42.9 °F 39.2 °F 76% 30.00 in 10.0 mi NW 6.9 mph - N/A Rain Light Rain
8:55 AM 46.4 °F 42.4 °F 39.2 °F 76% 30.00 in 10.0 mi NW 8.1 mph - N/A Rain Rain
9:14 AM 46.4 °F 41.5 °F 39.2 °F 76% 30.01 in 10.0 mi WNW 10.4 mph - N/A Rain Light Rain
9:15 AM 46.4 °F 41.5 °F 39.2 °F 76% 30.01 in 10.0 mi WNW 10.4 mph - N/A Rain Light Rain
9:34 AM 46.4 °F 41.5 °F 41.0 °F 81% 30.05 in 10.0 mi West 10.4 mph - N/A   Clear
9:35 AM 46.4 °F 41.5 °F 41.0 °F 81% 30.05 in 10.0 mi West 10.4 mph - N/A   Clear
9:53 AM 48.2 °F - 39.2 °F 71% 30.04 in 10.0 mi WNW 12.7 mph - N/A   Clear
9:55 AM 48.2 °F - 39.2 °F 71% 30.04 in 10.0 mi West 11.5 mph - N/A   Clear
10:13 AM 48.2 °F - 37.4 °F 66% 30.06 in 10.0 mi West 12.7 mph 23.0 mph N/A   Clear
10:15 AM 48.2 °F - 37.4 °F 66% 30.05 in 10.0 mi West 12.7 mph 21.9 mph N/A   Clear
10:33 AM 50.0 °F - 37.4 °F 62% 30.04 in 10.0 mi WNW 13.8 mph 19.6 mph N/A   Clear
10:35 AM 50.0 °F - 37.4 °F 62% 30.04 in 10.0 mi West 13.8 mph 21.9 mph N/A   Clear
10:53 AM 51.8 °F - 37.4 °F 58% 30.06 in 10.0 mi WNW 13.8 mph 20.7 mph N/A   Scattered Clouds
10:55 AM 50.0 °F - 35.6 °F 58% 30.06 in 10.0 mi West 13.8 mph 20.7 mph N/A   Scattered Clouds
11:13 AM 53.6 °F - 39.2 °F 58% 30.06 in 10.0 mi West 13.8 mph 23.0 mph N/A   Clear
11:15 AM 51.8 °F - 37.4 °F 58% 30.06 in 10.0 mi West 15.0 mph 23.0 mph N/A   Clear
11:33 AM 53.6 °F - 35.6 °F 51% 30.07 in 10.0 mi West 17.3 mph 20.7 mph N/A   Clear
11:35 AM 51.8 °F - 35.6 °F 54% 30.07 in 10.0 mi West 16.1 mph 20.7 mph N/A   Clear
11:53 AM 53.6 °F - 35.6 °F 51% 30.07 in 10.0 mi West 13.8 mph 24.2 mph N/A   Clear
11:55 AM 53.6 °F - 35.6 °F 51% 30.07 in 10.0 mi WNW 13.8 mph 24.2 mph N/A   Clear
12:13 PM 55.4 °F - 33.8 °F 44% 30.08 in 10.0 mi WNW 18.4 mph 23.0 mph N/A   Clear
12:15 PM 53.6 °F - 33.8 °F 47% 30.08 in 10.0 mi WNW 19.6 mph 23.0 mph N/A   Clear
12:33 PM 55.4 °F - 33.8 °F 44% 30.09 in 10.0 mi West 13.8 mph 24.2 mph N/A   Clear
12:35 PM 53.6 °F - 33.8 °F 47% 30.09 in 10.0 mi West 19.6 mph 26.5 mph N/A   Clear
12:53 PM 55.4 °F - 32.0 °F 41% 30.09 in 10.0 mi WNW 19.6 mph 25.3 mph N/A   Clear
12:55 PM 53.6 °F - 32.0 °F 44% 30.09 in 10.0 mi WNW 16.1 mph 25.3 mph N/A   Clear
1:13 PM 55.4 °F - 32.0 °F 41% 30.09 in 10.0 mi West 19.6 mph 26.5 mph N/A   Clear
1:15 PM 55.4 °F - 32.0 °F 41% 30.09 in 10.0 mi West 18.4 mph 25.3 mph N/A   Clear
1:34 PM 57.2 °F - 30.2 °F 36% 30.09 in 10.0 mi WNW 19.6 mph 25.3 mph N/A   Clear
1:35 PM 55.4 °F - 32.0 °F 41% 30.09 in 10.0 mi WNW 20.7 mph 25.3 mph N/A   Clear
1:54 PM 55.4 °F - 30.2 °F 38% 30.09 in 10.0 mi WNW 17.3 mph 23.0 mph N/A   Clear
1:55 PM 55.4 °F - 30.2 °F 38% 30.09 in 10.0 mi WNW 18.4 mph 23.0 mph N/A   Clear
2:14 PM 55.4 °F - 30.2 °F 38% 30.10 in 10.0 mi West 17.3 mph 21.9 mph N/A   Clear
2:15 PM 55.4 °F - 30.2 °F 38% 30.10 in 10.0 mi West 19.6 mph 24.2 mph N/A   Clear
2:33 PM 55.4 °F - 30.2 °F 38% 30.09 in 10.0 mi WNW 19.6 mph 25.3 mph N/A   Scattered Clouds
2:35 PM 53.6 °F - 30.2 °F 41% 30.09 in 10.0 mi WNW 18.4 mph 25.3 mph N/A   Scattered Clouds
2:53 PM 55.4 °F - 28.4 °F 36% 30.09 in 10.0 mi WNW 15.0 mph 25.3 mph N/A   Scattered Clouds
2:55 PM 53.6 °F - 30.2 °F 41% 30.09 in 10.0 mi WNW 17.3 mph 25.3 mph N/A   Scattered Clouds
3:13 PM 57.2 °F - 28.4 °F 33% 30.10 in 10.0 mi WNW 19.6 mph 26.5 mph N/A   Clear
3:15 PM 55.4 °F - 28.4 °F 36% 30.09 in 10.0 mi West 18.4 mph 26.5 mph N/A   Clear
3:33 PM 57.2 °F - 28.4 °F 33% 30.10 in 10.0 mi WNW 20.7 mph 25.3 mph N/A   Clear
3:35 PM 55.4 °F - 28.4 °F 36% 30.10 in 10.0 mi WNW 19.6 mph 25.3 mph N/A   Clear
3:53 PM 57.2 °F - 28.4 °F 33% 30.10 in 10.0 mi WNW 19.6 mph 24.2 mph N/A   Clear
3:55 PM 55.4 °F - 28.4 °F 36% 30.10 in 10.0 mi WNW 19.6 mph 24.2 mph N/A   Clear
4:13 PM 55.4 °F - 26.6 °F 33% 30.11 in 10.0 mi West 15.0 mph 27.6 mph N/A   Clear
4:15 PM 55.4 °F - 28.4 °F 36% 30.11 in 10.0 mi WNW 17.3 mph 27.6 mph N/A   Clear
4:33 PM 55.4 °F - 26.6 °F 33% 30.11 in 10.0 mi WNW 16.1 mph 27.6 mph N/A   Clear
4:35 PM 55.4 °F - 28.4 °F 36% 30.11 in 10.0 mi WNW 18.4 mph 27.6 mph N/A   Clear
4:53 PM 55.4 °F - 26.6 °F 33% 30.12 in 10.0 mi NW 17.3 mph 25.3 mph N/A   Clear
4:55 PM 53.6 °F - 28.4 °F 38% 30.11 in 10.0 mi WNW 17.3 mph 25.3 mph N/A   Clear
5:13 PM 55.4 °F - 26.6 °F 33% 30.12 in 10.0 mi WNW 15.0 mph 25.3 mph N/A   Clear
5:15 PM 53.6 °F - 28.4 °F 38% 30.12 in 10.0 mi WNW 16.1 mph 25.3 mph N/A   Clear
5:33 PM 53.6 °F - 26.6 °F 35% 30.13 in 10.0 mi WNW 15.0 mph 23.0 mph N/A   Clear
5:35 PM 53.6 °F - 28.4 °F 38% 30.13 in 10.0 mi WNW 18.4 mph 23.0 mph N/A   Clear
5:53 PM 51.8 °F - 26.6 °F 38% 30.13 in 10.0 mi WNW 11.5 mph 21.9 mph N/A   Clear
5:55 PM 51.8 °F - 28.4 °F 41% 30.13 in 10.0 mi WNW 11.5 mph - N/A   Clear
6:13 PM 51.8 °F - 26.6 °F 38% 30.13 in 10.0 mi WNW 13.8 mph 19.6 mph N/A   Clear
6:15 PM 50.0 °F - 28.4 °F 43% 30.13 in 10.0 mi WNW 12.7 mph 19.6 mph N/A   Clear
6:33 PM 50.0 °F - 26.6 °F 40% 30.14 in 10.0 mi WNW 10.4 mph 19.6 mph N/A   Clear
6:35 PM 50.0 °F - 28.4 °F 43% 30.14 in 10.0 mi WNW 10.4 mph 19.6 mph N/A   Clear
6:53 PM 50.0 °F - 26.6 °F 40% 30.15 in 10.0 mi WNW 12.7 mph 17.3 mph N/A   Clear
6:55 PM 48.2 °F - 28.4 °F 46% 30.15 in 10.0 mi WNW 12.7 mph 17.3 mph N/A   Clear
7:13 PM 48.2 °F - 26.6 °F 43% 30.16 in 10.0 mi WNW 10.4 mph - N/A   Clear
7:15 PM 46.4 °F 41.5 °F 28.4 °F 50% 30.16 in 10.0 mi WNW 10.4 mph - N/A   Clear
7:33 PM 48.2 °F - 26.6 °F 43% 30.16 in 10.0 mi NW 9.2 mph - N/A   Clear
7:35 PM 46.4 °F 42.4 °F 28.4 °F 50% 30.16 in 10.0 mi NW 8.1 mph - N/A   Clear
7:53 PM 46.4 °F 42.4 °F 26.6 °F 46% 30.16 in 10.0 mi NW 8.1 mph - N/A   Clear
7:55 PM 46.4 °F 43.5 °F 28.4 °F 50% 30.16 in 10.0 mi NW 5.8 mph - N/A   Clear
8:13 PM 46.4 °F 41.5 °F 26.6 °F 46% 30.17 in 10.0 mi NW 10.4 mph - N/A   Clear
8:15 PM 44.6 °F 38.8 °F 28.4 °F 53% 30.17 in 10.0 mi NW 11.5 mph - N/A   Clear
8:33 PM 46.4 °F 41.5 °F 26.6 °F 46% 30.17 in 10.0 mi NW 10.4 mph 17.3 mph N/A   Clear
8:35 PM 44.6 °F 39.2 °F 28.4 °F 53% 30.17 in 10.0 mi NW 10.4 mph 17.3 mph N/A   Clear
9:13 PM 44.6 °F 39.2 °F 26.6 °F 49% 30.18 in 10.0 mi NW 10.4 mph - N/A   Clear
9:15 PM 44.6 °F 39.2 °F 28.4 °F 53% 30.18 in 10.0 mi NW 10.4 mph - N/A   Clear
9:33 PM 44.6 °F 38.8 °F 26.6 °F 49% 30.19 in 10.0 mi NW 11.5 mph 18.4 mph N/A   Clear
9:35 PM 42.8 °F 36.2 °F 28.4 °F 57% 30.19 in 10.0 mi NW 12.7 mph 18.4 mph N/A   Clear
9:53 PM 44.6 °F 39.7 °F 26.6 °F 49% 30.20 in 10.0 mi WNW 9.2 mph 16.1 mph N/A   Clear
9:55 PM 42.8 °F 38.0 °F 28.4 °F 57% 30.20 in 10.0 mi WNW 8.1 mph 16.1 mph N/A   Clear
10:13 PM 42.8 °F 37.0 °F 26.6 °F 53% 30.20 in 10.0 mi WNW 10.4 mph - N/A   Clear
10:15 PM 42.8 °F 37.5 °F 28.4 °F 57% 30.20 in 10.0 mi WNW 9.2 mph - N/A   Clear
10:33 PM 42.8 °F 37.5 °F 26.6 °F 53% 30.21 in 10.0 mi WNW 9.2 mph - N/A   Clear
10:35 PM 42.8 °F 37.0 °F 28.4 °F 57% 30.21 in 10.0 mi WNW 10.4 mph - N/A   Clear
10:53 PM 42.8 °F 37.0 °F 26.6 °F 53% 30.20 in 10.0 mi WNW 10.4 mph - N/A   Clear
10:55 PM 41.0 °F 34.3 °F 28.4 °F 61% 30.20 in 10.0 mi WNW 11.5 mph - N/A   Clear
11:13 PM 42.8 °F 37.0 °F 26.6 °F 53% 30.20 in 10.0 mi WNW 10.4 mph - N/A   Clear
11:15 PM 41.0 °F 34.7 °F 28.4 °F 61% 30.21 in 10.0 mi WNW 10.4 mph - N/A   Clear
11:33 PM 41.0 °F 34.7 °F 26.6 °F 57% 30.20 in 10.0 mi WNW 10.4 mph - N/A   Clear
11:35 PM 41.0 °F 35.2 °F 28.4 °F 61% 30.20 in 10.0 mi WNW 9.2 mph - N/A   Clear
11:53 PM 39.2 °F 33.0 °F 26.6 °F 61% 30.20 in 10.0 mi WNW 9.2 mph - N/A   Clear
11:55 PM 39.2 °F 33.0 °F 28.4 °F 65% 30.20 in 10.0 mi WNW 9.2 mph - N/A   Clear